Hettinger, ND

10:29 PM MDT on June 28, 2017 (GMT -0600)
Hettinger Municipal

Weather History for KHEI - December, 2012

Change the Weather History Date:

Saturday, December 29, 2012

  Actual Average Record
Temperature  
Mean Temperature 14 °F -  
Max Temperature 27 °F 28 °F 51 °F (1999)
Min Temperature 0 °F 5 °F -14 °F (2014)
Degree Days  
Heating Degree Days 51 49  
Month to date heating degree days 1347 1352  
Since 1 July heating degree days 3325 3482  
Moisture  
Dew Point 9 °F    
Average Humidity 76    
Maximum Humidity 88    
Minimum Humidity 63    
Precipitation  
Precipitation 0.00 in 0.02 in 0.31 in (2005)
Month to date precipitation 0.16 0.29  
Year to date precipitation 14.74 16.08  
Sea Level Pressure  
Sea Level Pressure 30.12 in    
Wind  
Wind Speed 7 mph (WNW)    
Max Wind Speed 15 mph    
Max Gust Speed -    
Visibility 10 miles    
Events      
T = Trace of Precipitation, MM = Missing Value Source: NWS Daily Summary

Daily Weather History Graph

Daily Weather History Graph

Search for Another Location

Airport or City:

Trip Planner

Search our weather history database for the weather conditions in past years. The results will help you decide how hot, cold, wet, or windy it might be!

Date:

Astronomy

Dec. 29, 2012 Rise Set
Actual Time 7:32 AM MST 4:13 PM MST
Civil Twilight 6:57 AM MST 4:48 PM MST
Nautical Twilight 6:19 AM MST 5:26 PM MST
Astronomical Twilight 5:43 AM MST 6:02 PM MST
Moon 5:54 PM MST 8:02 AM MST
Length of Visible Light 9h 50m
Length of Day
8h 41m
Full, 98% of the Moon is Illuminated
Dec 29
Full
Jan 4
Last Quarter
Jan 11
New
Jan 18
First Quarter
Jan 26
Full

Hourly Weather History & Observations

Time (MST) Temp. Windchill Dew Point Humidity Pressure Visibility Wind Dir Wind Speed Gust Speed Precip Events Conditions
12:53 AM 6.1 °F - 1.0 °F 80% 30.11 in 10.0 mi Calm Calm - N/A   Clear
1:53 AM 7.0 °F - 3.0 °F 84% 30.10 in 10.0 mi Calm Calm - N/A   Clear
2:53 AM 10.9 °F -3.4 °F 6.1 °F 81% 30.10 in 10.0 mi WNW 11.5 mph - N/A   Clear
3:53 AM 12.9 °F -2.2 °F 9.0 °F 84% 30.09 in 10.0 mi WNW 13.8 mph - N/A   Clear
4:53 AM 12.9 °F -2.2 °F 8.1 °F 81% 30.12 in 10.0 mi WNW 13.8 mph - N/A   Clear
5:53 AM 14.0 °F -0.2 °F 9.0 °F 80% 30.14 in 10.0 mi WNW 12.7 mph - N/A   Mostly Cloudy
6:53 AM 12.9 °F -2.2 °F 8.1 °F 81% 30.16 in 10.0 mi WNW 13.8 mph - N/A   Partly Cloudy
7:53 AM 12.9 °F -1.6 °F 8.1 °F 81% 30.17 in 10.0 mi WNW 12.7 mph - N/A   Clear
8:53 AM 17.1 °F 2.5 °F 10.0 °F 74% 30.18 in 10.0 mi West 15.0 mph - N/A   Clear
9:53 AM 19.9 °F 7.9 °F 10.9 °F 68% 30.19 in 10.0 mi WNW 11.5 mph - N/A   Clear
10:53 AM 23.0 °F 10.6 °F 12.9 °F 65% 30.17 in 10.0 mi WNW 13.8 mph - N/A   Clear
11:53 AM 26.1 °F 16.2 °F 15.1 °F 63% 30.14 in 10.0 mi West 10.4 mph - N/A   Clear
12:53 PM 26.1 °F 16.8 °F 16.0 °F 66% 30.12 in 10.0 mi West 9.2 mph - N/A   Clear
1:53 PM 27.0 °F 20.5 °F 15.1 °F 61% 30.10 in 10.0 mi West 5.8 mph - N/A   Clear
2:53 PM 21.9 °F 13.4 °F 14.0 °F 72% 30.11 in 10.0 mi WNW 6.9 mph - N/A   Clear
3:53 PM 19.9 °F 14.9 °F 12.9 °F 74% 30.11 in 10.0 mi NW 3.5 mph - N/A   Clear
4:53 PM 16.0 °F 7.4 °F 9.0 °F 74% 30.12 in 10.0 mi West 5.8 mph - N/A   Clear
5:53 PM 16.0 °F - 9.0 °F 74% 30.10 in 10.0 mi Calm Calm - N/A   Clear
6:53 PM 16.0 °F - 10.0 °F 77% 30.10 in 10.0 mi Calm Calm - N/A   Clear
7:53 PM 15.1 °F 9.4 °F 10.0 °F 80% 30.10 in 10.0 mi South 3.5 mph - N/A   Clear
8:53 PM 12.0 °F - 6.1 °F 77% 30.09 in 10.0 mi Calm Calm - N/A   Clear
9:53 PM 12.0 °F - 6.1 °F 77% 30.09 in 10.0 mi Calm Calm - N/A   Clear
10:53 PM 7.0 °F - 1.9 °F 80% 30.09 in 10.0 mi Calm Calm - N/A   Clear
11:53 PM 6.1 °F - 1.9 °F 83% 30.06 in 10.0 mi Calm Calm - N/A   Clear